SWA2172 KELP-KSAN

Flight info

Callsign SWA2172
Flight time 1h 39m
Altitude 32000
Route ATKNN5 FLOGS SSO J50 GBN J2 HOGGZ LUCKI1
Aircraft B738/M-SDE2E3FGHIRWXY/LB1

Departure

Time 2026-04-24 21:43
Airport El Paso International Airport (KELP)

Arrival

Time 2026-04-24 23:22
Airport San Diego International Airport (KSAN)
Time Latitude Longitude Altitude Speed Heading
2026-04-24 21:07 31.80073 -106.39351 3926 ft 0 kts 183°
2026-04-24 21:33 31.80077 -106.39351 3926 ft 2 kts 183°
2026-04-24 21:33 31.80092 -106.39350 3926 ft 2 kts 183°
2026-04-24 21:33 31.80101 -106.39349 3926 ft 2 kts 183°
2026-04-24 21:33 31.80116 -106.39352 3926 ft 2 kts 155°
2026-04-24 21:34 31.80129 -106.39362 3926 ft 2 kts 133°
2026-04-24 21:34 31.80137 -106.39377 3925 ft 2 kts 111°
2026-04-24 21:34 31.80140 -106.39388 3925 ft 0 kts 95°
2026-04-24 21:34 31.80140 -106.39396 3925 ft 0 kts 93°
2026-04-24 21:36 31.80140 -106.39390 3925 ft 5 kts 93°
2026-04-24 21:37 31.80136 -106.39311 3926 ft 11 kts 93°
2026-04-24 21:37 31.80126 -106.39220 3926 ft 11 kts 115°
2026-04-24 21:37 31.80074 -106.39145 3926 ft 11 kts 135°
2026-04-24 21:37 31.80008 -106.39066 3926 ft 12 kts 132°
2026-04-24 21:38 31.79986 -106.38969 3927 ft 12 kts 91°
2026-04-24 21:38 31.79986 -106.38872 3928 ft 12 kts 90°
2026-04-24 21:38 31.79990 -106.38741 3931 ft 22 kts 90°
2026-04-24 21:38 31.79991 -106.38509 3935 ft 32 kts 89°
2026-04-24 21:39 31.79991 -106.38248 3939 ft 31 kts 90°
2026-04-24 21:39 31.79991 -106.37990 3941 ft 30 kts 90°
2026-04-24 21:39 31.79983 -106.37738 3943 ft 30 kts 94°
2026-04-24 21:39 31.79972 -106.37499 3948 ft 28 kts 93°
2026-04-24 21:40 31.79960 -106.37267 3949 ft 28 kts 94°
2026-04-24 21:40 31.79947 -106.37026 3954 ft 29 kts 94°
2026-04-24 21:40 31.79934 -106.36772 3957 ft 33 kts 94°
2026-04-24 21:40 31.79922 -106.36502 3957 ft 33 kts 93°
2026-04-24 21:41 31.79910 -106.36255 3952 ft 28 kts 94°
2026-04-24 21:41 31.79900 -106.36060 3949 ft 17 kts 91°
2026-04-24 21:41 31.79948 -106.35988 3948 ft 9 kts
2026-04-24 21:41 31.80002 -106.35983 3947 ft 8 kts
2026-04-24 21:42 31.80062 -106.35987 3948 ft 8 kts 315°
2026-04-24 21:42 31.80071 -106.36051 3949 ft 8 kts 272°
2026-04-24 21:42 31.80079 -106.36273 3953 ft 57 kts 274°
2026-04-24 21:42 31.80114 -106.36989 3954 ft 116 kts 273°
2026-04-24 21:43 31.80168 -106.38154 3945 ft 165 kts 272°
2026-04-24 21:43 31.80234 -106.39481 4548 ft 162 kts 273°
2026-04-24 21:43 31.80158 -106.40748 5172 ft 158 kts 248°
2026-04-24 21:43 31.79504 -106.41798 5635 ft 162 kts 233°
2026-04-24 21:44 31.78865 -106.42922 5987 ft 173 kts 243°
2026-04-24 21:44 31.78287 -106.44209 6400 ft 182 kts 243°
2026-04-24 21:44 31.77658 -106.45573 6742 ft 196 kts 243°
2026-04-24 21:44 31.76957 -106.47058 7032 ft 215 kts 243°
2026-04-24 21:45 31.76327 -106.48704 7377 ft 230 kts 256°
2026-04-24 21:45 31.76340 -106.50652 7720 ft 249 kts 286°
2026-04-24 21:45 31.77191 -106.52514 8112 ft 267 kts 302°
2026-04-24 21:45 31.78299 -106.54323 8650 ft 276 kts 303°
2026-04-24 21:46 31.79411 -106.56147 9317 ft 278 kts 302°
2026-04-24 21:46 31.80484 -106.58055 10008 ft 280 kts 297°
2026-04-24 21:46 31.81208 -106.60178 10677 ft 283 kts 284°
2026-04-24 21:46 31.81624 -106.62462 11369 ft 287 kts 279°
2026-04-24 21:47 31.81976 -106.64788 12107 ft 291 kts 279°
2026-04-24 21:47 31.82228 -106.66377 12657 ft 292 kts 279°
2026-04-24 21:47 31.82769 -106.69508 13768 ft 294 kts 280°
2026-04-24 21:47 31.83194 -106.71845 14578 ft 296 kts 281°
2026-04-24 21:48 31.83629 -106.74206 15433 ft 297 kts 281°
2026-04-24 21:48 31.84068 -106.76590 16218 ft 299 kts 281°
2026-04-24 21:48 31.84508 -106.78982 17028 ft 300 kts 281°
2026-04-24 21:48 31.84954 -106.81416 17806 ft 303 kts 281°
2026-04-24 21:49 31.85396 -106.83841 18561 ft 305 kts 281°
2026-04-24 21:49 31.85844 -106.86298 19278 ft 308 kts 281°
2026-04-24 21:49 31.86290 -106.88760 20003 ft 309 kts 281°
2026-04-24 21:49 31.86741 -106.91247 20765 ft 310 kts 281°
2026-04-24 21:50 31.87190 -106.93732 21459 ft 311 kts 281°
2026-04-24 21:50 31.87643 -106.96233 22109 ft 313 kts 281°
2026-04-24 21:50 31.88098 -106.98746 22750 ft 315 kts 281°
2026-04-24 21:50 31.88556 -107.01288 23394 ft 317 kts 281°
2026-04-24 21:51 31.89015 -107.03827 24027 ft 319 kts 280°
2026-04-24 21:51 31.89475 -107.06380 24628 ft 321 kts 280°
2026-04-24 21:51 31.89938 -107.08953 25215 ft 322 kts 280°
2026-04-24 21:51 31.90402 -107.11533 25764 ft 324 kts 280°
2026-04-24 21:52 31.90867 -107.14128 26277 ft 326 kts 280°
2026-04-24 21:52 31.91335 -107.16743 26801 ft 327 kts 280°
2026-04-24 21:52 31.91811 -107.19405 27308 ft 329 kts 279°
2026-04-24 21:52 31.92281 -107.22035 27792 ft 331 kts 280°
2026-04-24 21:53 31.92753 -107.24676 28290 ft 332 kts 280°
2026-04-24 21:53 31.93227 -107.27331 28772 ft 333 kts 279°
2026-04-24 21:53 31.93702 -107.30003 29211 ft 335 kts 279°
2026-04-24 21:53 31.94179 -107.32685 29637 ft 337 kts 279°
2026-04-24 21:54 31.94659 -107.35388 30070 ft 339 kts 279°
2026-04-24 21:54 31.95139 -107.38097 30501 ft 340 kts 279°
2026-04-24 21:54 31.95621 -107.40819 30891 ft 341 kts 279°
2026-04-24 21:54 31.96104 -107.43552 31249 ft 344 kts 279°
2026-04-24 21:55 31.96590 -107.46304 31639 ft 345 kts 279°
2026-04-24 21:55 31.97080 -107.49075 31982 ft 347 kts 280°
2026-04-24 21:55 31.97574 -107.51872 32028 ft 350 kts 279°
2026-04-24 21:56 31.98552 -107.57429 32031 ft 346 kts 279°
2026-04-24 21:56 31.99528 -107.62999 32038 ft 347 kts 280°
2026-04-24 21:57 32.00496 -107.68540 32045 ft 347 kts 279°
2026-04-24 21:57 32.01470 -107.74102 32042 ft 346 kts 279°
2026-04-24 21:58 32.02434 -107.79645 32037 ft 346 kts 279°
2026-04-24 21:58 32.03394 -107.85184 32031 ft 346 kts 279°
2026-04-24 21:59 32.04351 -107.90722 32041 ft 347 kts 279°
2026-04-24 21:59 32.05309 -107.96289 32049 ft 347 kts 279°
2026-04-24 22:00 32.06266 -108.01842 32042 ft 347 kts 279°
2026-04-24 22:00 32.07223 -108.07416 32052 ft 346 kts 279°
2026-04-24 22:01 32.08171 -108.12951 32066 ft 347 kts 279°
2026-04-24 22:01 32.09121 -108.18517 32063 ft 347 kts 279°
2026-04-24 22:02 32.10067 -108.24076 32065 ft 347 kts 279°
2026-04-24 22:02 32.11011 -108.29645 32064 ft 348 kts 279°
2026-04-24 22:03 32.11950 -108.35188 32055 ft 346 kts 279°
2026-04-24 22:03 32.12888 -108.40745 32060 ft 347 kts 279°
2026-04-24 22:04 32.13828 -108.46329 32057 ft 348 kts 279°
2026-04-24 22:04 32.14761 -108.51898 32052 ft 346 kts 279°
2026-04-24 22:05 32.15688 -108.57438 32044 ft 346 kts 279°
2026-04-24 22:05 32.16621 -108.63036 32048 ft 348 kts 279°
2026-04-24 22:06 32.17550 -108.68613 32042 ft 347 kts 278°
2026-04-24 22:06 32.18479 -108.74204 32037 ft 348 kts 279°
2026-04-24 22:07 32.19404 -108.79786 32037 ft 346 kts 278°
2026-04-24 22:07 32.20319 -108.85339 32045 ft 347 kts 278°
2026-04-24 22:08 32.21237 -108.90913 32049 ft 347 kts 278°
2026-04-24 22:08 32.22149 -108.96475 32046 ft 347 kts 279°
2026-04-24 22:09 32.23063 -109.02058 32052 ft 347 kts 278°
2026-04-24 22:09 32.23965 -109.07601 32043 ft 345 kts 278°
2026-04-24 22:10 32.24873 -109.13179 32042 ft 345 kts 279°
2026-04-24 22:10 32.25773 -109.18769 32035 ft 347 kts 279°
2026-04-24 22:11 32.26632 -109.24319 32016 ft 344 kts 278°
2026-04-24 22:11 32.27674 -109.29826 32015 ft 345 kts 283°
2026-04-24 22:12 32.29054 -109.35283 32018 ft 348 kts 283°
2026-04-24 22:12 32.30440 -109.40739 32023 ft 347 kts 283°
2026-04-24 22:13 32.31784 -109.46177 32025 ft 348 kts 283°
2026-04-24 22:13 32.33127 -109.51659 32024 ft 347 kts 283°
2026-04-24 22:14 32.34458 -109.57142 32030 ft 347 kts 283°
2026-04-24 22:14 32.35778 -109.62595 32043 ft 348 kts 283°
2026-04-24 22:15 32.37112 -109.68117 32055 ft 347 kts 283°
2026-04-24 22:15 32.38432 -109.73583 32067 ft 346 kts 283°
2026-04-24 22:16 32.39743 -109.79038 32064 ft 348 kts 283°
2026-04-24 22:16 32.41063 -109.84531 32065 ft 348 kts 282°
2026-04-24 22:17 32.42381 -109.90036 32062 ft 348 kts 282°
2026-04-24 22:17 32.43688 -109.95508 32045 ft 347 kts 283°
2026-04-24 22:18 32.44996 -110.00998 32043 ft 348 kts 282°
2026-04-24 22:18 32.46308 -110.06509 32042 ft 347 kts 283°
2026-04-24 22:19 32.47610 -110.11978 32041 ft 348 kts 283°
2026-04-24 22:19 32.48919 -110.17493 32053 ft 348 kts 283°
2026-04-24 22:20 32.50220 -110.22985 32060 ft 347 kts 282°
2026-04-24 22:20 32.51520 -110.28492 32052 ft 348 kts 282°
2026-04-24 22:21 32.52815 -110.34000 32035 ft 347 kts 283°
2026-04-24 22:21 32.54109 -110.39511 32013 ft 349 kts 282°
2026-04-24 22:22 32.55407 -110.45048 31990 ft 348 kts 283°
2026-04-24 22:22 32.56694 -110.50557 31969 ft 348 kts 282°
2026-04-24 22:23 32.57980 -110.56065 31990 ft 349 kts 283°
2026-04-24 22:23 32.59272 -110.61609 32012 ft 348 kts 282°
2026-04-24 22:24 32.60555 -110.67123 32027 ft 349 kts 282°
2026-04-24 22:24 32.61832 -110.72633 32044 ft 347 kts 282°
2026-04-24 22:25 32.63113 -110.78163 32036 ft 348 kts 282°
2026-04-24 22:25 32.64386 -110.83671 32015 ft 347 kts 282°
2026-04-24 22:26 32.65656 -110.89184 31999 ft 348 kts 282°
2026-04-24 22:26 32.66927 -110.94710 31982 ft 347 kts 282°
2026-04-24 22:27 32.68190 -111.00217 31973 ft 348 kts 282°
2026-04-24 22:27 32.69457 -111.05759 31951 ft 348 kts 282°
2026-04-24 22:28 32.70714 -111.11271 31941 ft 347 kts 282°
2026-04-24 22:28 32.71975 -111.16795 31934 ft 348 kts 282°
2026-04-24 22:29 32.73862 -111.25090 31906 ft 348 kts 282°
2026-04-24 22:29 32.75144 -111.30762 31895 ft 366 kts 282°
2026-04-24 22:30 32.76498 -111.36762 31885 ft 385 kts 282°
2026-04-24 22:30 32.77908 -111.43017 31871 ft 399 kts 282°
2026-04-24 22:31 32.79346 -111.49389 31867 ft 399 kts 282°
2026-04-24 22:31 32.80774 -111.55734 31863 ft 399 kts 282°
2026-04-24 22:32 32.82196 -111.62081 31861 ft 399 kts 282°
2026-04-24 22:32 32.83626 -111.68479 31855 ft 399 kts 282°
2026-04-24 22:33 32.85034 -111.74798 31856 ft 398 kts 282°
2026-04-24 22:33 32.86445 -111.81147 31852 ft 397 kts 282°
2026-04-24 22:34 32.87854 -111.87508 31852 ft 399 kts 282°
2026-04-24 22:34 32.88986 -111.93898 31846 ft 396 kts 276°
2026-04-24 22:35 32.89607 -112.00359 31848 ft 394 kts 274°
2026-04-24 22:35 32.90155 -112.06852 31844 ft 395 kts 274°
2026-04-24 22:36 32.90727 -112.13340 31850 ft 395 kts 275°
2026-04-24 22:36 32.91316 -112.19806 31848 ft 395 kts 275°
2026-04-24 22:37 32.91913 -112.26308 31851 ft 396 kts 275°
2026-04-24 22:37 32.92509 -112.32812 31851 ft 394 kts 274°
2026-04-24 22:38 32.93100 -112.39279 31844 ft 395 kts 275°
2026-04-24 22:38 32.93688 -112.45747 31840 ft 395 kts 274°
2026-04-24 22:39 32.94276 -112.52259 31825 ft 395 kts 274°
2026-04-24 22:39 32.94857 -112.58730 31819 ft 396 kts 274°
2026-04-24 22:40 32.95336 -112.65198 31815 ft 394 kts 271°
2026-04-24 22:40 32.95067 -112.71706 31805 ft 393 kts 263°
2026-04-24 22:41 32.94259 -112.78095 31805 ft 393 kts 261°
2026-04-24 22:41 32.93362 -112.84500 31805 ft 392 kts 261°
2026-04-24 22:42 32.92475 -112.90900 31813 ft 392 kts 261°
2026-04-24 22:42 32.91600 -112.97277 31812 ft 392 kts 261°
2026-04-24 22:43 32.90729 -113.03642 31809 ft 393 kts 261°
2026-04-24 22:43 32.89850 -113.10062 31804 ft 391 kts 262°
2026-04-24 22:44 32.88978 -113.16411 31802 ft 392 kts 261°
2026-04-24 22:44 32.88094 -113.22823 31797 ft 391 kts 261°
2026-04-24 22:45 32.87215 -113.29166 31799 ft 392 kts 261°
2026-04-24 22:45 32.86324 -113.35565 31795 ft 392 kts 261°
2026-04-24 22:46 32.85438 -113.41919 31799 ft 392 kts 261°
2026-04-24 22:46 32.84546 -113.48294 31800 ft 391 kts 261°
2026-04-24 22:47 32.83647 -113.54672 31793 ft 391 kts 261°
2026-04-24 22:47 32.82753 -113.61014 31802 ft 393 kts 261°
2026-04-24 22:48 32.81846 -113.67419 31799 ft 392 kts 261°
2026-04-24 22:48 32.80944 -113.73762 31800 ft 393 kts 261°
2026-04-24 22:49 32.80030 -113.80152 31798 ft 392 kts 261°
2026-04-24 22:49 32.79115 -113.86533 31792 ft 393 kts 261°
2026-04-24 22:50 32.78204 -113.92872 31797 ft 392 kts 261°
2026-04-24 22:50 32.77525 -113.99274 31795 ft 391 kts 266°
2026-04-24 22:51 32.77396 -114.05745 31805 ft 393 kts 269°
2026-04-24 22:51 32.77524 -114.12227 31812 ft 392 kts 271°
2026-04-24 22:52 32.77852 -114.18659 31819 ft 392 kts 272°
2026-04-24 22:52 32.78172 -114.25101 31818 ft 393 kts 272°
2026-04-24 22:53 32.78455 -114.31571 31820 ft 392 kts 272°
2026-04-24 22:53 32.78945 -114.38012 31811 ft 394 kts 276°
2026-04-24 22:54 32.80249 -114.44310 31795 ft 396 kts 283°
2026-04-24 22:54 32.81958 -114.50536 31794 ft 399 kts 284°
2026-04-24 22:55 32.83711 -114.56760 31791 ft 396 kts 284°
2026-04-24 22:55 32.85436 -114.62959 31790 ft 397 kts 284°
2026-04-24 22:56 32.87062 -114.69221 31797 ft 395 kts 281°
2026-04-24 22:56 32.87812 -114.75631 31792 ft 391 kts 270°
2026-04-24 22:57 32.87795 -114.82065 31787 ft 391 kts 267°
2026-04-24 22:57 32.87627 -114.88501 31786 ft 392 kts 267°
2026-04-24 22:58 32.87454 -114.94971 31786 ft 391 kts 267°
2026-04-24 22:58 32.87294 -115.01402 31774 ft 390 kts 268°
2026-04-24 22:59 32.87139 -115.07836 31788 ft 392 kts 267°
2026-04-24 22:59 32.86982 -115.14304 31408 ft 391 kts 267°
2026-04-24 23:00 32.86903 -115.17534 31146 ft 389 kts 267°
2026-04-24 23:00 32.86825 -115.20710 30547 ft 393 kts 267°
2026-04-24 23:00 32.86745 -115.23952 29776 ft 392 kts 267°
2026-04-24 23:00 32.86664 -115.27155 29265 ft 385 kts 267°
2026-04-24 23:01 32.86584 -115.30299 28799 ft 378 kts 267°
2026-04-24 23:01 32.86494 -115.33416 28309 ft 374 kts 266°
2026-04-24 23:01 32.86253 -115.36457 27795 ft 367 kts 262°
2026-04-24 23:01 32.85878 -115.39382 27304 ft 361 kts 261°
2026-04-24 23:02 32.85441 -115.42325 26796 ft 355 kts 260°
2026-04-24 23:02 32.85010 -115.45145 26318 ft 350 kts 260°
2026-04-24 23:02 32.84583 -115.47974 25861 ft 348 kts 260°
2026-04-24 23:02 32.84146 -115.50820 25767 ft 349 kts 259°
2026-04-24 23:03 32.83678 -115.53680 25772 ft 357 kts 259°
2026-04-24 23:03 32.83190 -115.56576 25767 ft 358 kts 259°
2026-04-24 23:03 32.82704 -115.59458 25770 ft 355 kts 259°
2026-04-24 23:03 32.82223 -115.62334 25777 ft 357 kts 259°
2026-04-24 23:04 32.81744 -115.65225 25527 ft 356 kts 259°
2026-04-24 23:04 32.81271 -115.68089 25036 ft 352 kts 259°
2026-04-24 23:04 32.80806 -115.70908 24548 ft 346 kts 259°
2026-04-24 23:04 32.80349 -115.73682 24062 ft 341 kts 259°
2026-04-24 23:05 32.79894 -115.76443 23562 ft 343 kts 259°
2026-04-24 23:05 32.79434 -115.79230 23043 ft 347 kts 259°
2026-04-24 23:05 32.78974 -115.82011 22544 ft 342 kts 259°
2026-04-24 23:05 32.78530 -115.84750 22105 ft 335 kts 260°
2026-04-24 23:06 32.78212 -115.87453 21660 ft 330 kts 263°
2026-04-24 23:06 32.78007 -115.90157 21120 ft 333 kts 265°
2026-04-24 23:06 32.77834 -115.92941 20614 ft 337 kts 265°
2026-04-24 23:06 32.77662 -115.95657 20154 ft 332 kts 265°
2026-04-24 23:07 32.77478 -115.98397 19628 ft 328 kts 265°
2026-04-24 23:07 32.77293 -116.01038 19144 ft 324 kts 264°
2026-04-24 23:07 32.77101 -116.03674 18702 ft 319 kts 264°
2026-04-24 23:07 32.76904 -116.06319 18254 ft 321 kts 264°
2026-04-24 23:08 32.76705 -116.08971 17776 ft 326 kts 265°
2026-04-24 23:08 32.76503 -116.11638 17267 ft 324 kts 265°
2026-04-24 23:08 32.76305 -116.14243 16776 ft 320 kts 264°
2026-04-24 23:08 32.76107 -116.16844 16332 ft 315 kts 264°
2026-04-24 23:09 32.75908 -116.19445 15871 ft 315 kts 264°
2026-04-24 23:09 32.75707 -116.22057 15377 ft 320 kts 264°
2026-04-24 23:09 32.75507 -116.24649 14902 ft 319 kts 264°
2026-04-24 23:09 32.75306 -116.27248 14468 ft 313 kts 264°
2026-04-24 23:10 32.75111 -116.29793 14325 ft 300 kts 264°
2026-04-24 23:10 32.74921 -116.32259 13841 ft 300 kts 264°
2026-04-24 23:10 32.74730 -116.34723 13358 ft 298 kts 264°
2026-04-24 23:10 32.74540 -116.37176 12904 ft 296 kts 264°
2026-04-24 23:11 32.74353 -116.39590 12495 ft 293 kts 264°
2026-04-24 23:11 32.74166 -116.41983 12044 ft 292 kts 264°
2026-04-24 23:11 32.73976 -116.44370 11604 ft 292 kts 264°
2026-04-24 23:11 32.73786 -116.46770 11242 ft 292 kts 264°
2026-04-24 23:12 32.73600 -116.49121 11053 ft 281 kts 264°
2026-04-24 23:12 32.73411 -116.51395 10795 ft 275 kts 264°
2026-04-24 23:12 32.73199 -116.53641 10378 ft 274 kts 263°
2026-04-24 23:12 32.72975 -116.55902 10016 ft 272 kts 263°
2026-04-24 23:13 32.72756 -116.58118 9811 ft 263 kts 263°
2026-04-24 23:13 32.72547 -116.60259 9441 ft 262 kts 263°
2026-04-24 23:13 32.72339 -116.62413 9068 ft 261 kts 263°
2026-04-24 23:13 32.72127 -116.64580 8702 ft 260 kts 263°
2026-04-24 23:14 32.71925 -116.66712 8372 ft 259 kts 264°
2026-04-24 23:14 32.71752 -116.68865 8002 ft 258 kts 264°
2026-04-24 23:14 32.71596 -116.70951 7666 ft 256 kts 265°
2026-04-24 23:14 32.71438 -116.73058 7299 ft 256 kts 265°
2026-04-24 23:15 32.71275 -116.75171 6935 ft 256 kts 265°
2026-04-24 23:15 32.71109 -116.77274 6591 ft 255 kts 265°
2026-04-24 23:15 32.70943 -116.79362 6237 ft 255 kts 265°
2026-04-24 23:15 32.70758 -116.81439 5977 ft 248 kts 261°
2026-04-24 23:16 32.70353 -116.83368 5904 ft 234 kts 252°
2026-04-24 23:16 32.69780 -116.85133 5776 ft 224 kts 249°
2026-04-24 23:16 32.69202 -116.86815 5617 ft 217 kts 250°
2026-04-24 23:16 32.68676 -116.88450 5372 ft 212 kts 251°
2026-04-24 23:17 32.68178 -116.90134 4928 ft 217 kts 252°
2026-04-24 23:17 32.67687 -116.91826 4506 ft 218 kts 252°
2026-04-24 23:17 32.67296 -116.93539 4191 ft 214 kts 263°
2026-04-24 23:17 32.67444 -116.95232 3953 ft 207 kts 287°
2026-04-24 23:18 32.67921 -116.96825 3720 ft 200 kts 289°
2026-04-24 23:18 32.68348 -116.98363 3512 ft 193 kts 287°
2026-04-24 23:18 32.68725 -116.99864 3288 ft 188 kts 286°
2026-04-24 23:18 32.69069 -117.01323 3122 ft 180 kts 285°
2026-04-24 23:19 32.69411 -117.02751 2857 ft 178 kts 286°
2026-04-24 23:19 32.69759 -117.04131 2656 ft 173 kts 285°
2026-04-24 23:19 32.70092 -117.05509 2424 ft 172 kts 285°
2026-04-24 23:19 32.70426 -117.06851 2198 ft 164 kts 284°
2026-04-24 23:20 32.70730 -117.08116 1992 ft 153 kts 285°
2026-04-24 23:20 32.71014 -117.09286 1816 ft 147 kts 284°
2026-04-24 23:20 32.71292 -117.10428 1530 ft 142 kts 284°
2026-04-24 23:20 32.71560 -117.11525 1304 ft 139 kts 284°
2026-04-24 23:21 32.71825 -117.12637 1090 ft 140 kts 283°
2026-04-24 23:21 32.72096 -117.13741 871 ft 140 kts 284°
2026-04-24 23:21 32.72374 -117.14855 666 ft 140 kts 284°
2026-04-24 23:21 32.72639 -117.15953 495 ft 140 kts 282°
2026-04-24 23:22 32.72897 -117.17072 281 ft 141 kts 283°
2026-04-24 23:22 32.73171 -117.18192 47 ft 140 kts 283°
2026-04-24 23:22 32.73399 -117.19148 24 ft 88 kts 286°
2026-04-24 23:22 32.73511 -117.19610 22 ft 29 kts 286°
2026-04-24 23:23 32.73524 -117.19791 21 ft 16 kts 249°
2026-04-24 23:23 32.73495 -117.19836 21 ft 4 kts 202°
2026-04-24 23:23 32.73483 -117.19838 21 ft 3 kts 172°
2026-04-24 23:23 32.73451 -117.19784 21 ft 9 kts 109°
2026-04-24 23:24 32.73432 -117.19707 22 ft 11 kts 106°
2026-04-24 23:24 32.73409 -117.19613 22 ft 14 kts 106°
2026-04-24 23:24 32.73381 -117.19497 24 ft 12 kts 107°
2026-04-24 23:24 32.73326 -117.19434 24 ft 11 kts 180°
2026-04-24 23:25 32.73252 -117.19471 24 ft 11 kts 208°
2026-04-24 23:25 32.73231 -117.19517 24 ft 4 kts 291°
2026-04-24 23:25 32.73247 -117.19541 24 ft 2 kts 314°
2026-04-24 23:25 32.73254 -117.19550 24 ft 0 kts 316°